Time,TemperatureF,DewpointF,PressureIn,WindDirection,WindDirectionDegrees,WindSpeedMPH,WindSpeedGustMPH,Humidity,HourlyPrecipIn,Conditions,Clouds,dailyrainin,SoftwareType,DateUTC
2017-02-26 00:00:00,35.1,24.6,30.16,NNW,331,0.0,-999.0,65,0.00,,,0.00,Haskell-WGSend-v0.01,2017-02-26 06:00:00,
2017-02-26 00:05:00,35.0,24.5,30.16,NNW,331,0.0,-999.0,65,0.00,,,0.00,Haskell-WGSend-v0.01,2017-02-26 06:05:00,
2017-02-26 00:10:00,34.8,24.3,30.16,NNW,331,0.0,-999.0,65,0.00,,,0.00,Haskell-WGSend-v0.01,2017-02-26 06:10:00,
2017-02-26 00:15:00,34.7,24.2,30.16,NNW,331,0.0,-999.0,65,0.00,,,0.00,Haskell-WGSend-v0.01,2017-02-26 06:15:00,
2017-02-26 00:20:00,34.6,24.1,30.16,NNW,331,0.0,-999.0,65,0.00,,,0.00,Haskell-WGSend-v0.01,2017-02-26 06:20:00,
2017-02-26 00:25:00,34.4,24.3,30.16,NNW,331,0.0,-999.0,66,0.00,,,0.00,Haskell-WGSend-v0.01,2017-02-26 06:25:00,
2017-02-26 00:30:00,34.2,24.1,30.16,NNW,331,0.0,-999.0,66,0.00,,,0.00,Haskell-WGSend-v0.01,2017-02-26 06:30:00,
2017-02-26 00:35:00,34.1,24.3,30.16,NNW,331,0.0,-999.0,67,0.00,,,0.00,Haskell-WGSend-v0.01,2017-02-26 06:35:00,
2017-02-26 00:40:00,33.9,24.1,30.16,NNW,331,0.0,-999.0,67,0.00,,,0.00,Haskell-WGSend-v0.01,2017-02-26 06:40:00,
2017-02-26 00:45:00,33.6,23.8,30.16,NNW,331,0.0,-999.0,67,0.00,,,0.00,Haskell-WGSend-v0.01,2017-02-26 06:45:00,
2017-02-26 00:50:00,33.4,24.0,30.17,NNW,331,0.0,-999.0,68,0.00,,,0.00,Haskell-WGSend-v0.01,2017-02-26 06:50:00,
2017-02-26 00:55:00,33.2,23.8,30.18,NNW,331,0.0,-999.0,68,0.00,,,0.00,Haskell-WGSend-v0.01,2017-02-26 06:55:00,
2017-02-26 01:00:00,33.0,23.6,30.18,NNW,331,0.0,-999.0,68,0.00,,,0.00,Haskell-WGSend-v0.01,2017-02-26 07:00:00,
2017-02-26 01:05:00,32.8,23.4,30.17,NNW,331,0.0,-999.0,68,0.00,,,0.00,Haskell-WGSend-v0.01,2017-02-26 07:05:00,
2017-02-26 01:10:00,32.6,23.6,30.17,NNW,331,0.0,-999.0,69,0.00,,,0.00,Haskell-WGSend-v0.01,2017-02-26 07:10:00,
2017-02-26 01:15:00,32.4,23.7,30.18,NNW,331,0.0,-999.0,70,0.00,,,0.00,Haskell-WGSend-v0.01,2017-02-26 07:15:00,
2017-02-26 01:20:00,32.1,23.8,30.17,NNW,331,0.0,-999.0,71,0.00,,,0.00,Haskell-WGSend-v0.01,2017-02-26 07:20:00,
2017-02-26 01:25:00,31.8,22.9,30.17,NNW,331,0.0,-999.0,72,0.00,,,0.00,Haskell-WGSend-v0.01,2017-02-26 07:25:00,
2017-02-26 01:30:00,31.6,22.7,30.17,NNW,331,0.0,-999.0,72,0.00,,,0.00,Haskell-WGSend-v0.01,2017-02-26 07:30:00,
2017-02-26 01:35:00,31.4,22.5,30.17,NNW,331,0.0,-999.0,72,0.00,,,0.00,Haskell-WGSend-v0.01,2017-02-26 07:35:00,
2017-02-26 01:40:00,31.1,22.9,30.16,NNW,331,0.0,-999.0,74,0.00,,,0.00,Haskell-WGSend-v0.01,2017-02-26 07:40:00,
2017-02-26 01:45:00,30.8,22.7,30.17,NNW,331,0.0,-999.0,74,0.00,,,0.00,Haskell-WGSend-v0.01,2017-02-26 07:45:00,
2017-02-26 01:50:00,30.6,23.2,30.17,NNW,331,0.0,-999.0,76,0.00,,,0.00,Haskell-WGSend-v0.01,2017-02-26 07:50:00,
2017-02-26 01:55:00,30.5,23.4,30.17,NNW,331,0.0,-999.0,77,0.00,,,0.00,Haskell-WGSend-v0.01,2017-02-26 07:55:00,
2017-02-26 02:00:00,30.3,23.2,30.17,NNW,331,0.0,-999.0,77,0.00,,,0.00,Haskell-WGSend-v0.01,2017-02-26 08:00:00,
2017-02-26 02:05:00,30.3,23.6,30.17,NNW,331,0.0,-999.0,78,0.00,,,0.00,Haskell-WGSend-v0.01,2017-02-26 08:05:00,
2017-02-26 02:10:00,30.2,23.1,30.17,NNW,331,0.0,-999.0,77,0.00,,,0.00,Haskell-WGSend-v0.01,2017-02-26 08:10:00,
2017-02-26 02:15:00,30.0,22.9,30.17,NNW,331,0.0,-999.0,77,0.00,,,0.00,Haskell-WGSend-v0.01,2017-02-26 08:15:00,
2017-02-26 02:20:00,29.9,23.2,30.17,NNW,331,0.0,-999.0,78,0.00,,,0.00,Haskell-WGSend-v0.01,2017-02-26 08:20:00,
2017-02-26 02:25:00,29.9,22.8,30.17,NNW,331,0.0,-999.0,77,0.00,,,0.00,Haskell-WGSend-v0.01,2017-02-26 08:25:00,
2017-02-26 02:35:00,29.7,22.6,30.18,NNW,331,0.0,-999.0,77,0.00,,,0.00,Haskell-WGSend-v0.01,2017-02-26 08:35:00,
2017-02-26 02:40:00,29.6,22.9,30.18,NNW,331,0.0,-999.0,78,0.00,,,0.00,Haskell-WGSend-v0.01,2017-02-26 08:40:00,
2017-02-26 02:45:00,29.5,23.1,30.18,NNW,331,0.0,-999.0,79,0.00,,,0.00,Haskell-WGSend-v0.01,2017-02-26 08:45:00,
2017-02-26 02:50:00,29.4,23.0,30.17,NNW,331,0.0,-999.0,79,0.00,,,0.00,Haskell-WGSend-v0.01,2017-02-26 08:50:00,
2017-02-26 02:55:00,29.3,22.9,30.17,NNW,331,0.0,-999.0,79,0.00,,,0.00,Haskell-WGSend-v0.01,2017-02-26 08:55:00,
2017-02-26 03:00:00,29.3,22.9,30.17,NNW,331,0.0,-999.0,79,0.00,,,0.00,Haskell-WGSend-v0.01,2017-02-26 09:00:00,
2017-02-26 03:05:00,29.3,22.9,30.17,NNW,331,0.0,-999.0,79,0.00,,,0.00,Haskell-WGSend-v0.01,2017-02-26 09:05:00,
2017-02-26 03:10:00,29.3,23.3,30.18,NNW,331,0.0,-999.0,80,0.00,,,0.00,Haskell-WGSend-v0.01,2017-02-26 09:10:00,
2017-02-26 03:15:00,29.2,22.8,30.18,NNW,331,0.0,-999.0,79,0.00,,,0.00,Haskell-WGSend-v0.01,2017-02-26 09:15:00,
2017-02-26 03:20:00,29.1,22.7,30.18,NNW,331,0.0,-999.0,79,0.00,,,0.00,Haskell-WGSend-v0.01,2017-02-26 09:20:00,
2017-02-26 03:25:00,29.0,22.6,30.18,NNW,331,0.0,-999.0,79,0.00,,,0.00,Haskell-WGSend-v0.01,2017-02-26 09:25:00,
2017-02-26 03:30:00,28.9,22.9,30.18,NNW,331,0.0,-999.0,80,0.00,,,0.00,Haskell-WGSend-v0.01,2017-02-26 09:30:00,
2017-02-26 03:35:00,28.7,22.4,30.18,NNW,331,0.0,-999.0,79,0.00,,,0.00,Haskell-WGSend-v0.01,2017-02-26 09:35:00,
2017-02-26 03:40:00,28.6,22.6,30.19,NNW,331,0.0,-999.0,80,0.00,,,0.00,Haskell-WGSend-v0.01,2017-02-26 09:40:00,
2017-02-26 03:45:00,28.5,22.5,30.19,NNW,331,0.0,-999.0,80,0.00,,,0.00,Haskell-WGSend-v0.01,2017-02-26 09:45:00,
2017-02-26 03:50:00,28.3,22.6,30.20,NNW,331,0.0,-999.0,81,0.00,,,0.00,Haskell-WGSend-v0.01,2017-02-26 09:50:00,
2017-02-26 03:55:00,28.2,22.9,30.20,NNW,331,0.0,-999.0,82,0.00,,,0.00,Haskell-WGSend-v0.01,2017-02-26 09:55:00,
2017-02-26 04:00:00,28.3,23.6,30.20,NNW,331,0.0,-999.0,84,0.00,,,0.00,Haskell-WGSend-v0.01,2017-02-26 10:00:00,
2017-02-26 04:05:00,28.2,23.2,30.19,NNW,331,0.0,-999.0,83,0.00,,,0.00,Haskell-WGSend-v0.01,2017-02-26 10:05:00,
2017-02-26 04:10:00,28.0,23.0,30.20,NNW,331,0.0,-999.0,83,0.00,,,0.00,Haskell-WGSend-v0.01,2017-02-26 10:10:00,
2017-02-26 04:15:00,27.8,22.8,30.20,NNW,331,0.0,-999.0,83,0.00,,,0.00,Haskell-WGSend-v0.01,2017-02-26 10:15:00,
2017-02-26 04:20:00,27.6,22.3,30.20,NNW,331,0.0,-999.0,82,0.00,,,0.00,Haskell-WGSend-v0.01,2017-02-26 10:20:00,
2017-02-26 04:25:00,27.4,22.1,30.21,NNW,331,0.0,-999.0,82,0.00,,,0.00,Haskell-WGSend-v0.01,2017-02-26 10:25:00,
2017-02-26 04:30:00,27.4,23.0,30.21,NNW,331,0.0,-999.0,85,0.00,,,0.00,Haskell-WGSend-v0.01,2017-02-26 10:30:00,
2017-02-26 04:35:00,27.6,23.5,30.21,NNW,331,0.0,-999.0,86,0.00,,,0.00,Haskell-WGSend-v0.01,2017-02-26 10:35:00,
2017-02-26 04:40:00,27.7,23.6,30.22,NNW,331,0.0,-999.0,86,0.00,,,0.00,Haskell-WGSend-v0.01,2017-02-26 10:40:00,
2017-02-26 04:45:00,27.6,23.2,30.21,NNW,331,0.0,-999.0,85,0.00,,,0.00,Haskell-WGSend-v0.01,2017-02-26 10:45:00,
2017-02-26 04:50:00,27.6,23.2,30.22,NNW,331,0.0,-999.0,85,0.00,,,0.00,Haskell-WGSend-v0.01,2017-02-26 10:50:00,
2017-02-26 04:55:00,27.5,23.1,30.23,NNW,331,0.0,-999.0,85,0.00,,,0.00,Haskell-WGSend-v0.01,2017-02-26 10:55:00,
2017-02-26 05:00:00,27.4,23.0,30.23,NNW,331,0.0,-999.0,85,0.00,,,0.00,Haskell-WGSend-v0.01,2017-02-26 11:00:00,
2017-02-26 05:05:00,27.3,22.9,30.23,NNW,331,0.0,-999.0,85,0.00,,,0.00,Haskell-WGSend-v0.01,2017-02-26 11:05:00,
2017-02-26 05:10:00,27.2,23.1,30.23,NNW,331,0.0,-999.0,86,0.00,,,0.00,Haskell-WGSend-v0.01,2017-02-26 11:10:00,
2017-02-26 05:15:00,27.2,23.1,30.23,NNW,331,0.0,-999.0,86,0.00,,,0.00,Haskell-WGSend-v0.01,2017-02-26 11:15:00,
2017-02-26 05:25:00,27.1,23.0,30.23,NNW,331,0.0,-999.0,86,0.00,,,0.00,Haskell-WGSend-v0.01,2017-02-26 11:25:00,
2017-02-26 05:30:00,27.0,22.9,30.22,NNW,331,0.0,-999.0,86,0.00,,,0.00,Haskell-WGSend-v0.01,2017-02-26 11:30:00,
2017-02-26 05:35:00,27.0,22.9,30.23,NNW,331,0.0,-999.0,86,0.00,,,0.00,Haskell-WGSend-v0.01,2017-02-26 11:35:00,
2017-02-26 05:40:00,26.9,22.8,30.23,NNW,331,0.0,-999.0,86,0.00,,,0.00,Haskell-WGSend-v0.01,2017-02-26 11:40:00,
2017-02-26 05:45:00,26.7,23.0,30.24,NNW,331,0.0,-999.0,87,0.00,,,0.00,Haskell-WGSend-v0.01,2017-02-26 11:45:00,
2017-02-26 05:50:00,26.8,23.4,30.24,NNW,331,0.0,-999.0,88,0.00,,,0.00,Haskell-WGSend-v0.01,2017-02-26 11:50:00,
2017-02-26 05:55:00,26.8,23.1,30.24,NNW,331,0.0,-999.0,87,0.00,,,0.00,Haskell-WGSend-v0.01,2017-02-26 11:55:00,
2017-02-26 06:05:00,26.9,23.5,30.24,NNW,332,0.0,-999.0,88,0.00,,,0.00,Haskell-WGSend-v0.01,2017-02-26 12:05:00,
2017-02-26 06:10:00,26.8,23.4,30.24,NNW,331,0.0,-999.0,88,0.00,,,0.00,Haskell-WGSend-v0.01,2017-02-26 12:10:00,
2017-02-26 06:15:00,26.8,23.4,30.24,NNW,331,0.0,-999.0,88,0.00,,,0.00,Haskell-WGSend-v0.01,2017-02-26 12:15:00,
2017-02-26 06:20:00,26.9,23.5,30.24,NNW,332,0.0,-999.0,88,0.00,,,0.00,Haskell-WGSend-v0.01,2017-02-26 12:20:00,
2017-02-26 06:25:00,26.9,23.5,30.25,NNW,332,0.0,-999.0,88,0.00,,,0.00,Haskell-WGSend-v0.01,2017-02-26 12:25:00,
2017-02-26 06:30:00,26.9,23.5,30.25,NNW,331,0.0,-999.0,88,0.00,,,0.00,Haskell-WGSend-v0.01,2017-02-26 12:30:00,
2017-02-26 06:35:00,27.0,23.6,30.24,NNW,332,0.0,-999.0,88,0.00,,,0.00,Haskell-WGSend-v0.01,2017-02-26 12:35:00,
2017-02-26 06:40:00,27.1,24.0,30.24,NNW,331,0.0,-999.0,89,0.00,,,0.00,Haskell-WGSend-v0.01,2017-02-26 12:40:00,
2017-02-26 06:45:00,27.2,23.8,30.25,NNW,331,0.0,-999.0,88,0.00,,,0.00,Haskell-WGSend-v0.01,2017-02-26 12:45:00,
2017-02-26 06:50:00,27.1,23.7,30.25,NNW,331,0.0,-999.0,88,0.00,,,0.00,Haskell-WGSend-v0.01,2017-02-26 12:50:00,
2017-02-26 06:55:00,27.1,23.7,30.25,NNW,331,0.0,-999.0,88,0.00,,,0.00,Haskell-WGSend-v0.01,2017-02-26 12:55:00,
2017-02-26 07:00:00,27.1,23.7,30.25,NNW,331,0.0,-999.0,88,0.00,,,0.00,Haskell-WGSend-v0.01,2017-02-26 13:00:00,
2017-02-26 07:05:00,27.2,23.8,30.25,NNW,331,0.0,-999.0,88,0.00,,,0.00,Haskell-WGSend-v0.01,2017-02-26 13:05:00,
2017-02-26 07:10:00,27.4,24.3,30.25,NNW,331,0.0,-999.0,89,0.00,,,0.00,Haskell-WGSend-v0.01,2017-02-26 13:10:00,
2017-02-26 07:15:00,27.9,25.1,30.25,NNW,331,0.0,-999.0,90,0.00,,,0.00,Haskell-WGSend-v0.01,2017-02-26 13:15:00,
2017-02-26 07:20:00,28.8,26.2,30.25,NNW,331,0.0,-999.0,91,0.00,,,0.00,Haskell-WGSend-v0.01,2017-02-26 13:20:00,
2017-02-26 07:25:00,29.9,27.3,30.25,NNW,332,0.0,-999.0,91,0.00,,,0.00,Haskell-WGSend-v0.01,2017-02-26 13:25:00,
2017-02-26 07:30:00,31.2,28.6,30.25,NNW,331,0.0,-999.0,91,0.00,,,0.00,Haskell-WGSend-v0.01,2017-02-26 13:30:00,
2017-02-26 07:36:00,32.6,29.7,30.24,NNW,331,0.0,-999.0,89,0.00,,,0.00,Haskell-WGSend-v0.01,2017-02-26 13:36:00,
2017-02-26 07:45:00,35.5,28.4,30.25,NNW,332,0.0,-999.0,75,0.00,,,0.00,Haskell-WGSend-v0.01,2017-02-26 13:45:00,
2017-02-26 07:50:00,36.7,27.9,30.25,NNW,338,0.0,-999.0,70,0.00,,,0.00,Haskell-WGSend-v0.01,2017-02-26 13:50:00,
2017-02-26 07:55:00,37.5,26.8,30.25,NE,56,0.0,-999.0,65,0.00,,,0.00,Haskell-WGSend-v0.01,2017-02-26 13:55:00,
2017-02-26 08:00:00,38.2,27.1,30.26,NE,56,0.0,-999.0,64,0.00,,,0.00,Haskell-WGSend-v0.01,2017-02-26 14:00:00,
2017-02-26 08:05:00,38.9,26.2,30.27,ENE,57,2.0,-999.0,60,0.00,,,0.00,Haskell-WGSend-v0.01,2017-02-26 14:05:00,
2017-02-26 08:10:00,39.3,26.6,30.27,ENE,63,0.0,-999.0,60,0.00,,,0.00,Haskell-WGSend-v0.01,2017-02-26 14:10:00,
2017-02-26 08:15:00,39.6,26.5,30.27,ENE,67,2.0,-999.0,59,0.00,,,0.00,Haskell-WGSend-v0.01,2017-02-26 14:15:00,
2017-02-26 08:20:00,39.8,25.8,30.27,ENE,76,1.0,-999.0,57,0.00,,,0.00,Haskell-WGSend-v0.01,2017-02-26 14:20:00,
2017-02-26 08:25:00,40.0,26.5,30.28,ENE,77,0.0,-999.0,58,0.00,,,0.00,Haskell-WGSend-v0.01,2017-02-26 14:25:00,
2017-02-26 08:30:00,40.7,26.3,30.28,ENE,77,0.0,-999.0,56,0.00,,,0.00,Haskell-WGSend-v0.01,2017-02-26 14:30:00,
2017-02-26 08:35:00,41.1,26.6,30.28,East,80,0.0,-999.0,56,0.00,,,0.00,Haskell-WGSend-v0.01,2017-02-26 14:35:00,
2017-02-26 08:40:00,41.4,26.5,30.27,East,80,3.0,-999.0,55,0.00,,,0.00,Haskell-WGSend-v0.01,2017-02-26 14:40:00,
2017-02-26 08:45:00,41.8,25.5,30.28,East,80,0.0,-999.0,52,0.00,,,0.00,Haskell-WGSend-v0.01,2017-02-26 14:45:00,
2017-02-26 08:55:00,42.3,26.0,30.28,East,81,1.0,-999.0,52,0.00,,,0.00,Haskell-WGSend-v0.01,2017-02-26 14:55:00,
2017-02-26 09:00:00,42.5,26.2,30.27,East,82,0.0,-999.0,52,0.00,,,0.00,Haskell-WGSend-v0.01,2017-02-26 15:00:00,
2017-02-26 09:05:00,42.9,25.6,30.27,East,82,0.0,-999.0,50,0.00,,,0.00,Haskell-WGSend-v0.01,2017-02-26 15:05:00,
2017-02-26 09:10:00,43.3,25.0,30.27,East,88,0.0,-999.0,48,0.00,,,0.00,Haskell-WGSend-v0.01,2017-02-26 15:10:00,
2017-02-26 09:15:00,43.7,25.3,30.27,East,86,1.0,-999.0,48,0.00,,,0.00,Haskell-WGSend-v0.01,2017-02-26 15:15:00,
2017-02-26 09:25:00,44.5,25.1,30.27,East,84,2.0,-999.0,46,0.00,,,0.00,Haskell-WGSend-v0.01,2017-02-26 15:25:00,
2017-02-26 09:30:00,44.3,25.4,30.28,East,86,0.0,-999.0,47,0.00,,,0.00,Haskell-WGSend-v0.01,2017-02-26 15:30:00,
2017-02-26 09:35:00,44.6,25.7,30.27,East,87,0.0,-999.0,47,0.00,,,0.00,Haskell-WGSend-v0.01,2017-02-26 15:35:00,